TimeCST,TemperatureF,Dew PointF,Humidity,Sea Level PressureIn,VisibilityMPH,Wind Direction,Wind SpeedMPH,Gust SpeedMPH,PrecipitationIn,Events,Conditions,WindDirDegrees,DateUTC
12:15 AM,23.9,17.4,76,29.88,10.0,WSW,5.8,-,N/A,,Scattered Clouds,240,2012-12-08 06:15:00
12:35 AM,25.0,18.5,76,29.87,10.0,SW,3.5,-,N/A,,Mostly Cloudy,230,2012-12-08 06:35:00
12:55 AM,26.6,19.2,74,29.86,10.0,SSW,6.9,-,N/A,,Overcast,210,2012-12-08 06:55:00
1:15 AM,27.3,19.0,71,29.85,10.0,South,6.9,-,N/A,,Overcast,190,2012-12-08 07:15:00
1:35 AM,28.4,19.4,69,29.84,10.0,South,6.9,-,N/A,,Overcast,180,2012-12-08 07:35:00
1:55 AM,28.9,19.8,69,29.83,10.0,South,8.1,-,N/A,,Overcast,180,2012-12-08 07:55:00
2:15 AM,29.3,19.8,68,29.82,10.0,SSW,5.8,-,N/A,,Overcast,200,2012-12-08 08:15:00
2:55 AM,28.9,19.4,68,29.82,10.0,SW,5.8,-,N/A,,Overcast,220,2012-12-08 08:55:00
3:15 AM,27.5,19.2,71,29.81,10.0,WSW,4.6,-,N/A,,Mostly Cloudy,240,2012-12-08 09:15:00
3:35 AM,26.4,18.5,72,29.81,10.0,SW,5.8,-,N/A,,Mostly Cloudy,230,2012-12-08 09:35:00
3:55 AM,27.5,19.4,72,29.82,10.0,West,5.8,-,N/A,,Overcast,260,2012-12-08 09:55:00
4:15 AM,28.0,21.9,78,29.80,10.0,WSW,6.9,-,N/A,,Mostly Cloudy,240,2012-12-08 10:15:00
4:35 AM,28.0,24.1,85,29.78,10.0,SSW,13.8,-,N/A,,Clear,210,2012-12-08 10:35:00
5:15 AM,30.0,25.7,84,29.76,10.0,SSW,11.5,-,N/A,,Scattered Clouds,200,2012-12-08 11:15:00
5:35 AM,30.9,25.7,81,29.74,10.0,South,18.4,21.9,N/A,,Mostly Cloudy,190,2012-12-08 11:35:00
5:55 AM,31.1,25.3,79,29.73,10.0,South,17.3,24.2,N/A,,Overcast,190,2012-12-08 11:55:00
6:15 AM,32.0,24.3,73,29.72,10.0,South,21.9,28.8,N/A,,Mostly Cloudy,180,2012-12-08 12:15:00
6:35 AM,32.5,21.9,65,29.72,10.0,South,21.9,27.6,N/A,,Mostly Cloudy,190,2012-12-08 12:35:00
6:55 AM,32.2,21.2,64,29.72,10.0,South,16.1,27.6,N/A,,Overcast,190,2012-12-08 12:55:00
7:15 AM,31.6,21.2,65,29.70,10.0,South,17.3,24.2,N/A,,Overcast,180,2012-12-08 13:15:00
7:35 AM,30.6,21.0,68,29.70,10.0,South,17.3,24.2,N/A,,Mostly Cloudy,180,2012-12-08 13:35:00
7:55 AM,30.2,20.8,68,29.70,10.0,South,20.7,-,N/A,,Mostly Cloudy,190,2012-12-08 13:55:00
8:15 AM,29.8,21.0,70,29.69,10.0,South,18.4,23.0,N/A,,Overcast,190,2012-12-08 14:15:00
8:35 AM,29.7,21.0,70,29.68,10.0,South,10.4,17.3,N/A,,Overcast,190,2012-12-08 14:35:00
8:55 AM,30.2,21.0,69,29.69,10.0,SSW,9.2,-,N/A,,Mostly Cloudy,200,2012-12-08 14:55:00
9:15 AM,31.1,21.2,67,29.69,10.0,SSE,6.9,-,N/A,,Overcast,160,2012-12-08 15:15:00
9:35 AM,31.8,21.7,66,29.69,10.0,SSE,4.6,-,N/A,,Scattered Clouds,160,2012-12-08 15:35:00
9:55 AM,33.3,21.6,62,29.68,10.0,SSW,12.7,-,N/A,,Scattered Clouds,210,2012-12-08 15:55:00
10:15 AM,34.3,21.6,60,29.67,10.0,SSW,15.0,19.6,N/A,,Scattered Clouds,210,2012-12-08 16:15:00
10:35 AM,37.4,21.6,53,29.67,10.0,SW,11.5,-,N/A,,Clear,230,2012-12-08 16:35:00
10:55 AM,41.2,19.2,41,29.67,10.0,WSW,17.3,23.0,N/A,,Scattered Clouds,240,2012-12-08 16:55:00
11:15 AM,42.6,18.7,38,29.68,10.0,WSW,17.3,-,N/A,,Scattered Clouds,240,2012-12-08 17:15:00
11:35 AM,43.2,18.7,38,29.67,10.0,West,18.4,21.9,N/A,,Scattered Clouds,260,2012-12-08 17:35:00
11:55 AM,34.5,28.8,79,29.70,1.5,WNW,32.2,51.8,N/A,Rain,Rain,290,2012-12-08 17:55:00
12:15 PM,34.7,27.1,74,29.69,10.0,WNW,28.8,39.1,N/A,,Overcast,290,2012-12-08 18:15:00
12:35 PM,37.4,24.1,59,29.66,10.0,West,29.9,47.2,N/A,,Overcast,280,2012-12-08 18:35:00
12:55 PM,39.2,20.8,48,29.65,10.0,WNW,33.4,48.3,N/A,,Overcast,290,2012-12-08 18:55:00
1:15 PM,40.1,18.1,41,29.64,10.0,WNW,28.8,44.9,N/A,,Mostly Cloudy,290,2012-12-08 19:15:00
1:35 PM,40.1,18.3,42,29.64,10.0,WNW,32.2,44.9,N/A,,Mostly Cloudy,290,2012-12-08 19:35:00
1:55 PM,40.8,15.6,36,29.63,10.0,WNW,41.4,52.9,N/A,,Scattered Clouds,290,2012-12-08 19:55:00
2:15 PM,42.6,12.6,30,29.62,10.0,WNW,38.0,43.7,N/A,,Scattered Clouds,290,2012-12-08 20:15:00
2:35 PM,41.0,11.8,30,29.63,10.0,WNW,34.5,49.5,N/A,,Mostly Cloudy,290,2012-12-08 20:35:00
2:55 PM,40.3,12.7,33,29.63,10.0,WNW,26.5,42.6,N/A,,Overcast,290,2012-12-08 20:55:00
3:15 PM,39.2,14.7,37,29.64,10.0,West,33.4,40.3,N/A,,Overcast,280,2012-12-08 21:15:00
3:35 PM,38.8,15.1,38,29.64,10.0,West,25.3,35.7,N/A,,Overcast,280,2012-12-08 21:35:00
3:55 PM,38.5,16.7,41,29.64,10.0,West,24.2,29.9,N/A,,Overcast,280,2012-12-08 21:55:00
4:15 PM,38.3,15.6,40,29.66,10.0,West,26.5,32.2,N/A,,Overcast,280,2012-12-08 22:15:00
4:35 PM,37.9,12.4,35,29.66,10.0,WNW,31.1,39.1,N/A,,Overcast,290,2012-12-08 22:35:00
4:55 PM,36.5,15.8,43,29.68,10.0,WNW,29.9,46.0,N/A,,Overcast,290,2012-12-08 22:55:00
5:15 PM,35.6,16.0,45,29.68,10.0,WNW,31.1,39.1,N/A,,Overcast,290,2012-12-08 23:15:00
5:35 PM,34.9,12.9,40,29.67,10.0,WNW,35.7,42.6,N/A,,Mostly Cloudy,290,2012-12-08 23:35:00
5:55 PM,33.3,21.9,63,29.69,10.0,NW,31.1,41.4,N/A,,Scattered Clouds,320,2012-12-08 23:55:00
6:15 PM,31.5,22.8,70,29.72,10.0,NW,29.9,40.3,N/A,,Mostly Cloudy,320,2012-12-09 00:15:00
6:35 PM,28.9,22.6,77,29.73,10.0,NNW,27.6,39.1,N/A,,Mostly Cloudy,330,2012-12-09 00:35:00
6:55 PM,27.7,19.9,73,29.75,10.0,NW,17.3,24.2,N/A,,Scattered Clouds,320,2012-12-09 00:55:00
7:15 PM,27.1,20.3,75,29.76,10.0,NW,16.1,-,N/A,,Clear,320,2012-12-09 01:15:00
7:35 PM,26.6,20.3,77,29.77,10.0,NW,16.1,20.7,N/A,,Clear,310,2012-12-09 01:35:00
7:55 PM,26.2,21.0,81,29.77,10.0,NW,16.1,-,N/A,,Scattered Clouds,310,2012-12-09 01:55:00
8:15 PM,26.6,19.9,76,29.78,10.0,NW,18.4,26.5,N/A,,Scattered Clouds,310,2012-12-09 02:15:00
8:35 PM,27.5,16.9,64,29.79,10.0,WNW,21.9,26.5,N/A,,Clear,300,2012-12-09 02:35:00
8:55 PM,27.9,15.4,60,29.79,10.0,WNW,24.2,32.2,N/A,,Clear,300,2012-12-09 02:55:00
9:15 PM,27.0,15.4,62,29.79,10.0,NW,25.3,32.2,N/A,,Clear,310,2012-12-09 03:15:00
9:35 PM,26.6,12.0,54,29.81,10.0,NW,24.2,32.2,N/A,,Clear,320,2012-12-09 03:35:00
9:55 PM,25.5,10.2,52,29.82,10.0,NW,29.9,42.6,N/A,,Clear,320,2012-12-09 03:55:00
10:15 PM,23.4,13.1,65,29.84,10.0,NW,21.9,31.1,N/A,,Clear,320,2012-12-09 04:15:00
10:35 PM,21.0,14.0,74,29.85,10.0,NW,20.7,34.5,N/A,,Clear,320,2012-12-09 04:35:00
10:55 PM,19.4,12.7,75,29.85,10.0,NW,26.5,32.2,N/A,,Clear,320,2012-12-09 04:55:00
11:15 PM,19.0,11.3,72,29.84,10.0,NW,24.2,39.1,N/A,,Clear,320,2012-12-09 05:15:00
11:35 PM,18.9,11.5,73,29.84,10.0,NNW,24.2,28.8,N/A,,Clear,330,2012-12-09 05:35:00
11:55 PM,18.5,11.8,75,29.87,10.0,NW,15.0,28.8,N/A,,Clear,320,2012-12-09 05:55:00